Tracking 30995 objects as of 5-Jul-2025
HD Live streaming from Space Station
objects crossing your sky now

FORMOSAT 3B

Track FORMOSAT 3B now!
10-day predictions
FORMOSAT 3B is classified as:


NORAD ID: 29048
Int'l Code: 2006-011B
Perigee: 766.6 km
Apogee: 824.7 km
Inclination: 72.0 °
Period: 100.6 minutes
Semi major axis: 7166 km
RCS: 0.6095 m2 (medium)
Launch date: April 15, 2006
Source: Taiwan (Republic of China) (ROC)
Launch site: AIR FORCE WESTERN TEST RANGE (AFWTR)
Your satellite tracking list
Your tracking list is empty




NASA's NSSDC Master Catalog

Two Line Element Set (TLE):
1 29048U 06011B   25186.48538021  .00000298  00000-0  12797-3 0  9992
2 29048  71.9642 210.7099 0040504  79.4879 281.0818 14.30968430  7170
Source of the keplerian elements: AFSPC